Regional Weather Roundup
Issued by NWS Albany, NY

Home | Current Version | Previous Version | Text Only | Print | Product List | Glossary On
Versions: 1 2 3 4 5 6 7 8 9 10 11 12 13 14 15 16 17 18 19 20 21 22 23 24 25 26 27 28 29 30 31 32 33 34 35 36 37 38 39 40 41 42 43 44 45 46 47 48 49 50
621
ASUS41 KALY 220410
RWRALY

NEW YORK STATE HOURLY WEATHER ROUNDUP
NATIONAL WEATHER SERVICE ALBANY NY
1100 PM EST TUE FEB 21 2017

NOTE: "FAIR" INDICATES FEW OR NO CLOUDS BELOW 12,000 FEET WITH NO
SIGNIFICANT WEATHER AND/OR NO OBSTRUCTIONS TO VISIBILITY.

NYZ032-033-038>043-046>054-057>066-NYZ062>081-082-084-220500-
EAST


CITY           SKY/WX    TMP DP  RH WIND       PRES   REMARKS
ALBANY         DRIZZLE   41  27  57 S9G18     30.05F
GLENS FALLS    CLOUDY    41  24  51 SW3       30.04F
POUGHKEEPSIE   NOT AVBL
NEWBURGH       MOCLDY    41  32  70 SW8       30.13F
ISLIP          CLOUDY    40  35  83 SW6       30.15F
NEW YORK CITY  CLOUDY    44  32  62 SW10      30.15F
CENTRAL PARK   CLOUDY    43  32  65 MISG      30.16F
$$

NYZ005>009-017-018-044>046-055-056-220500-
CENTRAL


CITY           SKY/WX    TMP DP  RH WIND       PRES   REMARKS
FULTON         CLOUDY    41  32  70 VRB3      29.98F
SYRACUSE       CLOUDY    42  35  76 SE5       29.99F
ROME           CLOUDY    40  28  62 E6        30.03F
ELMIRA         NOT AVBL
BINGHAMTON     NOT AVBL
$$

NYZ026>034-041>043-087-220500-
NORTH


CITY           SKY/WX    TMP DP  RH WIND       PRES   REMARKS
WATERTOWN      CLOUDY    45  32  60 S9G17     29.95F
FORT DRUM      NOT AVBL
OGDENSBURG     CLOUDY    42  30  63 S6        29.94S
MASSENA        LGT RAIN  34  30  85 CALM      29.95F
SARANAC LAKE   CLOUDY    37  25  61 SW13      29.94F WCI  29
PLATTSBURGH    NOT AVBL
$$

NYZ001>004-010>016-019>021-085-220500-
WEST


CITY           SKY/WX    TMP DP  RH WIND       PRES   REMARKS
NIAGARA FALLS  CLOUDY    46  41  82 S6        29.95F
BUFFALO        CLOUDY    46  42  86 CALM      29.96S
DUNKIRK        CLOUDY    50  44  80 S7        29.96F
JAMESTOWN      CLOUDY    48  30  49 CALM      29.97S
WELLSVILLE     CLOUDY    46  29  51 S7        29.99F
ROCHESTER      CLOUDY    50  34  54 SW8       29.96S
PENN YAN       CLOUDY    47  26  44 SW14      29.98F
$$

             KEY
       WCI = WIND CHILL INDEX
       VSB = VISIBILITY
       HX  = HEAT INDEX
$$




USA.gov is the U.S. government's official web portal to all federal, state and local government web resources and services.